Weather History for KBMT - January, 2013

Change the Weather History Date:

Thursday, January 3, 2013

  Actual Average (KBPT) Record (KBPT)
Temperature  
Mean Temperature 46 °F 52 °F  
Max Temperature 55 °F 62 °F 81 °F (1989)
Min Temperature 37 °F 43 °F 15 °F (1911)
Degree Days  
Heating Degree Days 19 13  
Month to date heating degree days 39  
Since 1 July heating degree days 589  
Cooling Degree Days 0 0  
Month to date cooling degree days 0  
Year to date cooling degree days 0  
Moisture  
Dew Point 30 °F    
Average Humidity 59    
Maximum Humidity 81    
Minimum Humidity 28    
Precipitation  
Precipitation 0.00 in 0.18 in 1.05 in (2015)
Month to date precipitation 0.51  
Year to date precipitation 0.51  
Snow  
Snow 0.00 in 0.00 in 0.40 in (1985)
Month to date snowfall 0.0  
Since 1 July snowfall T  
Snow Depth -    
Sea Level Pressure  
Sea Level Pressure 30.35 in    
Wind  
Wind Speed 8 mph (North)    
Max Wind Speed 13 mph    
Max Gust Speed 18 mph    
Visibility 10 miles    
Events      
T = Trace of Precipitation, MM = Missing Value Source: NWS Daily Summary

Daily Weather History Graph

Daily Weather History Graph

Search for Another Location

Airport or City:

Trip Planner

Search our weather history database for the weather conditions in past years. The results will help you decide how hot, cold, wet, or windy it might be!

Date:

Astronomy

Jan. 03, 2013 Rise Set
Actual Time 7:13 AM CST 5:29 PM CST
Civil Twilight 6:47 AM CST 5:56 PM CST
Nautical Twilight 6:17 AM CST 6:25 PM CST
Astronomical Twilight 5:48 AM CST 6:54 PM CST
Moon 11:35 PM CST (1/3) 10:53 AM CST (1/3)
Length of Visible Light 11h 08m
Length of Day
10h 16m
Waning Gibbous, 65% of the Moon is Illuminated
Jan 3
Waning Gibbous
Jan 4
Last Quarter
Jan 11
New
Jan 18
First Quarter
Jan 26
Full

Hourly Weather History & Observations

Time (CST) Temp. Windchill Dew Point Humidity Pressure Visibility Wind Dir Wind Speed Gust Speed Precip Events Conditions
12:15 AM 41.0 °F 36.4 °F 33.8 °F 76% 30.30 in 10.0 mi North 6.9 mph - N/A   Overcast
12:35 AM 41.0 °F 35.8 °F 33.8 °F 76% 30.29 in 10.0 mi North 8.1 mph - N/A   Overcast
12:55 AM 41.0 °F 36.4 °F 33.8 °F 76% 30.29 in 10.0 mi North 6.9 mph - N/A   Overcast
1:15 AM 41.0 °F 35.8 °F 33.8 °F 76% 30.29 in 10.0 mi North 8.1 mph - N/A   Overcast
1:35 AM 41.0 °F 34.7 °F 33.8 °F 76% 30.29 in 10.0 mi North 10.4 mph - N/A   Overcast
1:55 AM 41.0 °F 35.8 °F 33.8 °F 76% 30.30 in 10.0 mi North 8.1 mph - N/A   Overcast
2:15 AM 41.0 °F 34.7 °F 33.8 °F 76% 30.29 in 10.0 mi North 10.4 mph - N/A   Overcast
2:35 AM 39.2 °F 33.0 °F 33.8 °F 81% 30.30 in 10.0 mi North 9.2 mph - N/A   Overcast
2:55 AM 41.0 °F 36.4 °F 33.8 °F 76% 30.31 in 10.0 mi North 6.9 mph - N/A   Overcast
3:15 AM 39.2 °F 33.0 °F 33.8 °F 81% 30.31 in 10.0 mi North 9.2 mph - N/A   Overcast
3:35 AM 39.2 °F 33.0 °F 33.8 °F 81% 30.31 in 10.0 mi North 9.2 mph - N/A   Overcast
3:55 AM 39.2 °F 34.2 °F 33.8 °F 81% 30.32 in 10.0 mi North 6.9 mph - N/A   Overcast
4:15 AM 39.2 °F 33.0 °F 33.8 °F 81% 30.31 in 10.0 mi North 9.2 mph - N/A   Overcast
4:35 AM 39.2 °F 34.2 °F 33.8 °F 81% 30.31 in 10.0 mi North 6.9 mph - N/A   Overcast
4:55 AM 39.2 °F 33.6 °F 32.0 °F 75% 30.31 in 10.0 mi North 8.1 mph - N/A   Overcast
5:15 AM 39.2 °F 34.2 °F 32.0 °F 75% 30.32 in 10.0 mi North 6.9 mph - N/A   Overcast
5:35 AM 39.2 °F 33.6 °F 32.0 °F 75% 30.32 in 10.0 mi North 8.1 mph - N/A   Overcast
5:55 AM 39.2 °F 33.6 °F 32.0 °F 75% 30.33 in 10.0 mi North 8.1 mph - N/A   Overcast
6:15 AM 39.2 °F 33.0 °F 32.0 °F 75% 30.33 in 10.0 mi North 9.2 mph - N/A   Overcast
6:35 AM 37.4 °F 32.1 °F 32.0 °F 81% 30.35 in 10.0 mi North 6.9 mph - N/A   Overcast
6:55 AM 37.4 °F 31.4 °F 32.0 °F 81% 30.36 in 10.0 mi North 8.1 mph - N/A   Mostly Cloudy
7:15 AM 37.4 °F 31.4 °F 32.0 °F 81% 30.36 in 10.0 mi North 8.1 mph - N/A   Mostly Cloudy
7:35 AM 37.4 °F 32.1 °F 32.0 °F 81% 30.37 in 10.0 mi North 6.9 mph - N/A   Mostly Cloudy
7:55 AM 37.4 °F 32.1 °F 32.0 °F 81% 30.37 in 10.0 mi North 6.9 mph - N/A   Mostly Cloudy
8:15 AM 37.4 °F 32.1 °F 32.0 °F 81% 30.38 in 10.0 mi NNE 6.9 mph - N/A   Scattered Clouds
8:35 AM 39.2 °F 34.2 °F 32.0 °F 75% 30.40 in 10.0 mi North 6.9 mph - N/A   Scattered Clouds
8:55 AM 41.0 °F 34.7 °F 32.0 °F 70% 30.41 in 10.0 mi North 10.4 mph - N/A   Mostly Cloudy
9:15 AM 41.0 °F 33.9 °F 32.0 °F 70% 30.40 in 10.0 mi North 12.7 mph - N/A   Overcast
9:35 AM 42.8 °F 36.6 °F 32.0 °F 66% 30.41 in 10.0 mi NNE 11.5 mph - N/A   Scattered Clouds
9:55 AM 42.8 °F 37.0 °F 32.0 °F 66% 30.41 in 10.0 mi NNE 10.4 mph 18.4 mph N/A   Clear
10:35 AM 46.4 °F 41.9 °F 32.0 °F 57% 30.40 in 10.0 mi North 9.2 mph - N/A   Clear
10:55 AM 46.4 °F 41.9 °F 32.0 °F 57% 30.39 in 10.0 mi NNE 9.2 mph - N/A   Clear
11:15 AM 48.2 °F - 30.2 °F 50% 30.38 in 10.0 mi North 10.4 mph - N/A   Clear
11:35 AM 50.0 °F - 30.2 °F 47% 30.38 in 10.0 mi North 11.5 mph - N/A   Clear
12:55 PM 53.6 °F - 26.6 °F 35% 30.31 in 10.0 mi NNE 11.5 mph - N/A   Clear
1:15 PM 53.6 °F - 24.8 °F 33% 30.31 in 10.0 mi North 12.7 mph - N/A   Clear
1:35 PM 53.6 °F - 23.0 °F 30% 30.31 in 10.0 mi NNE 11.5 mph - N/A   Clear
1:55 PM 53.6 °F - 23.0 °F 30% 30.30 in 10.0 mi NNE 10.4 mph - N/A   Clear
2:15 PM 55.4 °F - 23.0 °F 29% 30.30 in 10.0 mi North 11.5 mph - N/A   Clear
3:35 PM 53.6 °F - 23.0 °F 30% 30.32 in 10.0 mi North 10.4 mph - N/A   Clear
3:55 PM 53.6 °F - 21.2 °F 28% 30.33 in 10.0 mi North 11.5 mph - N/A   Clear
4:15 PM 53.6 °F - 23.0 °F 30% 30.33 in 10.0 mi NNW 9.2 mph - N/A   Clear
4:35 PM 51.8 °F - 26.6 °F 38% 30.34 in 10.0 mi NNW 11.5 mph - N/A   Clear
4:55 PM 51.8 °F - 26.6 °F 38% 30.35 in 10.0 mi North 10.4 mph 16.1 mph N/A   Scattered Clouds
5:15 PM 50.0 °F - 26.6 °F 40% 30.36 in 10.0 mi North 9.2 mph - N/A   Mostly Cloudy
5:35 PM 50.0 °F - 28.4 °F 43% 30.36 in 10.0 mi North 6.9 mph - N/A   Overcast
5:55 PM 50.0 °F - 28.4 °F 43% 30.37 in 10.0 mi North 6.9 mph - N/A   Overcast
6:15 PM 50.0 °F - 28.4 °F 43% 30.37 in 10.0 mi North 6.9 mph - N/A   Overcast
6:35 PM 50.0 °F - 28.4 °F 43% 30.38 in 10.0 mi North 8.1 mph - N/A   Overcast
6:55 PM 50.0 °F - 28.4 °F 43% 30.39 in 10.0 mi North 6.9 mph - N/A   Overcast
7:15 PM 50.0 °F - 30.2 °F 47% 30.39 in 10.0 mi North 3.5 mph - N/A   Overcast
7:35 PM 50.0 °F - 30.2 °F 47% 30.40 in 10.0 mi North 3.5 mph - N/A   Overcast
7:55 PM 50.0 °F - 30.2 °F 47% 30.41 in 10.0 mi Calm Calm - N/A   Overcast
8:15 PM 48.2 °F - 32.0 °F 54% 30.42 in 10.0 mi Calm Calm - N/A   Overcast
8:35 PM 48.2 °F - 32.0 °F 54% 30.41 in 10.0 mi North 5.8 mph - N/A   Overcast
8:55 PM 48.2 °F - 30.2 °F 50% 30.41 in 10.0 mi NNE 6.9 mph - N/A   Overcast
9:15 PM 48.2 °F - 30.2 °F 50% 30.40 in 10.0 mi NNE 5.8 mph - N/A   Overcast
9:35 PM 48.2 °F - 30.2 °F 50% 30.40 in 10.0 mi NNE 8.1 mph - N/A   Overcast
9:55 PM 48.2 °F - 30.2 °F 50% 30.40 in 10.0 mi NNE 6.9 mph - N/A   Overcast
10:15 PM 48.2 °F - 30.2 °F 50% 30.40 in 10.0 mi NNE 9.2 mph - N/A   Overcast
10:35 PM 46.4 °F 42.4 °F 30.2 °F 53% 30.40 in 10.0 mi NE 8.1 mph - N/A   Overcast
10:55 PM 46.4 °F 42.9 °F 30.2 °F 53% 30.40 in 10.0 mi NE 6.9 mph - N/A   Overcast
11:35 PM 46.4 °F 45.2 °F 30.2 °F 53% 30.40 in 10.0 mi NE 3.5 mph - N/A   Overcast
11:55 PM 44.6 °F 40.7 °F 30.2 °F 57% 30.39 in 10.0 mi NNE 6.9 mph - N/A   Mostly Cloudy